Flag for Germany Weather past 2 weeks in Göttingen, Lower Saxony, Germany

Now
37 °F

Clear.


Feels Like: 30 °F
Forecast: 37 / 51 °F
Wind: 10 mph from Southwest

Location: Kassel / Calden

Current Time: Mar 30, 2015 at 10:30:59 PM

Latest Report: Mar 30, 2015 at 9:50 PM


Visibility: 10 mi

Pressure: 29.77 "Hg

Humidity: 70%

Dew point: 28 °F

Location of GöttingenLocation

Historic Weather in Göttingen — Graph

°F

Göttingen temperature yesterday

Maximum temperature yesterday: 50 °F (at 7:20 AM)
Minimum temperature yesterday: 45 °F (at 9:50 PM)
Average temperature yesterday: 49 °F

Past Weeks' High & Low Weather Summary

 TemperatureHumidityPressure
High63 °F (Mar 25, 1:50 PM)100% (Mar 17, 6:20 AM)30.33 "Hg (Mar 17, 6:20 AM)
Low27 °F (Mar 23, 5:50 AM)37% (Mar 25, 1:50 PM)29.21 "Hg (Mar 29, 8:20 PM)
Average44 °F75%29.98 "Hg
* Reported Mar 15 8:20 PM — Mar 30 9:20 PM, Göttingen, Weather by CustomWeather, © 2015

Note: Actual official high and low records may vary slightly from our data, if they occured in-between our weather recording intervals... More about our weather records

Advertising

Göttingen weather history for previous 24 hours

 ConditionsComfort  
Time TempWeatherWind HumidityBarometerVisibility
9:20 PM
Mon, Mar 30
39 °FPassing clouds.12 mph65%29.77 "HgN/A
8:50 PM41 °FPassing clouds.15 mph61%29.77 "HgN/A
8:20 PM41 °FPassing clouds.13 mph66%29.77 "HgN/A
7:50 PM41 °FPassing clouds.17 mph66%29.77 "HgN/A
7:20 PM41 °FLight rain. Passing clouds.15 mph66%29.74 "HgN/A
6:50 PM43 °FPassing clouds.22 mph61%29.74 "HgN/A
6:20 PM43 °FScattered showers. Scattered clouds.26 mph61%29.71 "HgN/A
5:50 PM41 °FScattered showers. Scattered clouds.20 mph76%29.71 "HgN/A
5:20 PM41 °FScattered showers. Passing clouds.18 mph76%29.68 "HgN/A
4:50 PM39 °FScattered showers. Partly sunny.23 mph81%29.68 "HgN/A
4:20 PM41 °FScattered showers. Partly sunny.23 mph76%29.65 "HgN/A
3:50 PM37 °FScattered showers. Passing clouds.25 mph81%29.65 "HgN/A
3:20 PM39 °FRain showers. Partly sunny.25 mph81%29.62 "HgN/A
2:50 PM39 °FPartly sunny.31 mph87%29.62 "HgN/A
2:20 PM41 °FPartly sunny.22 mph76%29.59 "HgN/A
1:50 PM37 °FLight rain. Broken clouds.36 mph81%29.56 "Hg4 mi
1:20 PM45 °FBroken clouds.29 mph66%29.53 "HgN/A
12:50 PM45 °FPassing clouds.26 mph66%29.53 "HgN/A
12:20 PM41 °FScattered clouds.22 mph76%29.53 "HgN/A
11:50 AM41 °FScattered clouds.25 mph81%29.50 "HgN/A
11:20 AM39 °FLight rain. Broken clouds.29 mph75%29.47 "HgN/A
10:50 AM43 °FPartly sunny.32 mph61%29.45 "HgN/A
10:20 AM43 °FPartly sunny.28 mph61%29.45 "HgN/A
9:50 AM43 °FScattered clouds.30 mph61%29.42 "HgN/A
9:20 AM41 °FScattered clouds.26 mph66%29.45 "HgN/A
8:50 AM41 °FPassing clouds.24 mph66%29.42 "HgN/A
8:20 AM41 °FPassing clouds.22 mph66%29.42 "HgN/A
7:50 AM39 °FPassing clouds.22 mph70%29.39 "HgN/A
7:20 AM41 °FPassing clouds.21 mph70%29.39 "HgN/A
6:50 AM41 °FPassing clouds.20 mph76%29.39 "HgN/A
6:20 AM41 °FOvercast.18 mph81%29.39 "HgN/A
5:50 AM41 °FOvercast.15 mph81%29.36 "HgN/A
Weather by CustomWeather, © 2015

See weather overviewHow to use our weather pages